* Astronomy

Members Login
Username 
 
Password 
    Remember Me  
Post Info TOPIC: Asteroid 2012 BL86


L

Posts: 131433
Date:
Asteroid 2012 BL86
Permalink  
 


Orbital elements:
2012 BL86                                                Earth MOID = 0.0269 AU
Epoch 2012 Mar. 14.0 TT = JDT 2456000.5                 MPC
M  15.75908              (2000.0)            P               Q
n   0.24232516     Peri.  348.04224     -0.22821617     -0.96814550
a   2.5480252      Node   115.07819     +0.90238200     -0.25005778
e   0.6054871      Incl.    6.53065     +0.36554632     +0.01286069
P   4.07           H   24.0           G   0.15           U   7

MPEC 2012 - B108



__________________
Page 1 of 1  sorted by
 
Quick Reply

Please log in to post quick replies.



Create your own FREE Forum
Report Abuse
Powered by ActiveBoard